Tracking 20715 objects as of 27-May-2020
HD Live streaming from Space Station
objects crossing your sky now

ASGARDIA 1

Track ASGARDIA 1 now!
10-day predictions


NORAD ID: 43049
Int'l Code: 2017-071N
Perigee: 441.2 km
Apogee: 444.7 km
Inclination: 51.6 °
Period: 93.3 minutes
Semi major axis: 6813 km
RCS: Unknown
Launch date: November 12, 2017
Source: United States (US)
Launch site: WALLOPS ISLAND (WLPIS)
aabbcc
Your satellite tracking list
Your tracking list is empty




NASA's NSSDC Master Catalog

Two Line Element Set (TLE):
1 43049U 17071N   20147.67459728  .00002298  00000-0  59619-4 0  9993
2 43049  51.6373 172.7207 0002539 359.2605   0.8377 15.43495313138984
Source of the keplerian elements: AFSPC